TimeAST,TemperatureF,Dew PointF,Humidity,Sea Level PressureIn,VisibilityMPH,Wind Direction,Wind SpeedMPH,Gust SpeedMPH,PrecipitationIn,Events,Conditions,WindDirDegrees,DateUTC
12:00 AM,82.4,71.6,70,30.01,6.2,East,12.7,-,N/A,,Scattered Clouds,80,2013-11-11 04:00:00
1:00 AM,82.4,73.4,74,29.98,6.2,East,11.5,-,N/A,,Partly Cloudy,90,2013-11-11 05:00:00
2:00 AM,82,73,68,29.98,19,East,8.1,,,,Partly Cloudy,80,2013-11-11 06:00:00
2:00 AM,82.4,73.4,74,29.98,6.2,East,8.1,-,N/A,,Partly Cloudy,80,2013-11-11 06:00:00
3:00 AM,82.4,73.4,74,29.95,6.2,East,10.4,-,N/A,,Partly Cloudy,90,2013-11-11 07:00:00
4:00 AM,82.4,73.4,74,29.98,6.2,East,10.4,-,N/A,,Partly Cloudy,90,2013-11-11 08:00:00
5:00 AM,82,73,67,29.99,19,East,10.4,,,,Scattered Clouds,90,2013-11-11 09:00:00
5:00 AM,82.4,73.4,74,29.98,6.2,East,10.4,-,N/A,,Partly Cloudy,90,2013-11-11 09:00:00
6:00 AM,82.4,73.4,74,29.98,6.2,East,12.7,-,N/A,,Partly Cloudy,80,2013-11-11 10:00:00
7:00 AM,82.4,73.4,74,30.01,6.2,East,12.7,-,N/A,,Scattered Clouds,90,2013-11-11 11:00:00
8:00 AM,84,74,64,30.03,16,East,11.5,,,,Partly Cloudy,80,2013-11-11 12:00:00
8:00 AM,84.2,73.4,70,30.01,6.2,East,11.5,-,N/A,,Scattered Clouds,80,2013-11-11 12:00:00
9:00 AM,84.2,73.4,70,30.04,6.2,East,15.0,-,N/A,,Mostly Cloudy,80,2013-11-11 13:00:00
10:00 AM,86.0,71.6,62,30.04,6.2,East,13.8,-,N/A,,Scattered Clouds,90,2013-11-11 14:00:00
11:00 AM,87,,,,22,East,13.8,,,,,90,2013-11-11 15:00:00
11:00 AM,86.0,71.6,62,30.04,6.2,East,13.8,-,N/A,,Partly Cloudy,90,2013-11-11 15:00:00
12:00 PM,87.8,73.4,62,30.01,6.2,East,12.7,-,N/A,,Mostly Cloudy,80,2013-11-11 16:00:00
1:00 PM,86.0,73.4,66,30.01,6.2,East,12.7,-,N/A,,Mostly Cloudy,80,2013-11-11 17:00:00
2:00 PM,86,74,59,29.99,16,East,12.7,,,,,80,2013-11-11 18:00:00
2:00 PM,86.0,73.4,66,29.98,6.2,East,12.7,-,N/A,,Mostly Cloudy,80,2013-11-11 18:00:00
3:00 PM,86.0,73.4,66,29.98,6.2,East,17.3,-,N/A,,Scattered Clouds,80,2013-11-11 19:00:00
4:00 PM,86.0,75.2,70,29.98,6.2,ENE,15.0,-,N/A,Rain,Light Rain Showers,70,2013-11-11 20:00:00
5:00 PM,84,74,64,29.99,16,East,12.7,,,Rain,Light Rain Showers,80,2013-11-11 21:00:00
5:00 PM,84.2,73.4,70,29.98,6.2,East,12.7,-,N/A,Rain,Light Rain Showers,80,2013-11-11 21:00:00
6:00 PM,84.2,73.4,70,29.98,6.2,East,13.8,-,N/A,,Scattered Clouds,80,2013-11-11 22:00:00
7:00 PM,84.2,73.4,70,30.01,6.2,East,12.7,-,N/A,,Mostly Cloudy,80,2013-11-11 23:00:00
8:00 PM,83,74,66,30.02,16,East,15.0,,,,Partly Cloudy,90,2013-11-12 00:00:00
8:00 PM,82.4,73.4,74,30.01,6.2,East,15.0,-,N/A,,Mostly Cloudy,90,2013-11-12 00:00:00
9:00 PM,82.4,73.4,74,30.04,6.2,East,15.0,-,N/A,Rain,Light Rain Showers,80,2013-11-12 01:00:00
10:00 PM,82.4,73.4,74,30.04,6.2,East,15.0,-,N/A,,Scattered Clouds,90,2013-11-12 02:00:00
11:00 PM,82,73,67,30.03,16,East,12.7,,,,Partly Cloudy,80,2013-11-12 03:00:00
11:00 PM,82.4,73.4,74,30.01,6.2,East,13.8,-,N/A,,Partly Cloudy,80,2013-11-12 03:00:00